User: anonymous
Location: Unspecified
(0.0000°N, 0.0000°E)
Time: 19:35:10
(UTC+02:00)
Language:

SJ-6B - Orbit

View from above orbital plane
View from above orbital plane
View from above satellite
View from above satellite

Ground track
Ground track

The orbit data is extracted from the following two-line orbital elements,

1 28415U 04035C   14211.44047006  .00002319  00000-0  17427-3 0  2527
2 28415 097.7977 216.3598 0057186 084.4457 276.3285 15.02307508540240
Epoch (UTC): 30 July 2014 10:34:16
Eccentricity: 0.0057186
inclination: 97.7977°
perigee height: 520 km
apogee height: 599 km
right ascension of ascending node: 216.3598°
argument of perigee: 84.4457°
revolutions per day: 15.02307508
mean anomaly at epoch: 276.3285°
orbit number at epoch: 54024

The dashed part of the orbit path shows where the satellite is in the earth's shadow,  

DLR